Location: Unspecified
(42.3650°N, 71.1030°W)
Time: 00:42:28
(UTC+00:00)

SR - All Passes

Search period start: 13 June 2024 00:00
Search period end: 23 June 2024 00:00
Orbit: 580 x 858 km, 66.7° (Epoch: 12 June)

Date Brightness Start Highest point End Pass type
(mag) Time Alt. Az. Time Alt. Az. Time Alt. Az.
13 Jun - 00:21:33 10° NNE 00:23:04 12° NE 00:24:35 10° ENE daylight
13 Jun - 02:01:21 10° NNW 02:05:36 84° ENE 02:09:52 10° SSE visible
13 Jun - 16:29:50 10° S 16:34:43 49° ESE 16:39:15 10° NE daylight
13 Jun - 18:12:51 10° W 18:16:45 23° NW 18:20:27 10° N daylight
14 Jun - 01:09:15 10° NNW 01:13:11 36° NE 01:17:08 10° ESE visible
14 Jun - 02:51:32 10° WNW 02:54:47 22° WSW 02:58:04 10° SSW visible
14 Jun - 15:38:40 10° SSE 15:42:35 23° ESE 15:46:17 10° ENE daylight
14 Jun - 17:19:25 10° SW 17:24:12 45° NW 17:28:38 10° NNE daylight
15 Jun - 00:17:36 10° N 00:20:34 18° NE 00:23:31 10° E daylight
15 Jun - 01:58:34 10° NW 02:02:41 52° WSW 02:06:50 10° SSE visible
15 Jun - 16:26:46 10° SSW 16:31:48 85° ESE 16:36:29 10° NNE daylight
15 Jun - 18:11:25 10° WNW 18:14:11 15° NW 18:16:52 10° N daylight
16 Jun - 01:06:11 10° NNW 01:10:24 64° ENE 01:14:39 10° SE visible
16 Jun - 02:50:07 10° W 02:51:39 12° WSW 02:53:11 10° SW visible
16 Jun - 15:34:54 10° S 15:39:34 39° ESE 15:43:55 10° NE daylight
16 Jun - 17:17:16 10° WSW 17:21:28 28° NW 17:25:26 10° N daylight
17 Jun - 00:14:12 10° N 00:17:55 29° NE 00:21:38 10° ESE daylight
17 Jun - 01:56:02 10° NW 01:59:39 28° WSW 02:03:20 10° S visible
17 Jun - 14:44:09 10° SSE 14:47:28 18° ESE 14:50:38 10° ENE daylight
17 Jun - 16:24:04 10° SW 16:28:58 56° WNW 16:33:30 10° NNE daylight
17 Jun - 23:22:43 10° N 23:25:12 15° NE 23:27:41 10° ENE daylight
18 Jun - 01:03:16 10° NW 01:07:29 69° WSW 01:11:45 10° SSE visible
18 Jun - 15:31:38 10° SSW 15:36:37 68° ESE 15:41:13 10° NE daylight
18 Jun - 17:15:33 10° W 17:18:49 18° NW 17:21:58 10° N daylight
19 Jun - 00:11:01 10° NNW 00:15:09 50° NE 00:19:18 10° SE daylight
19 Jun - 01:54:01 10° WNW 01:56:32 15° WSW 01:59:04 10° SW visible
19 Jun - 14:40:02 10° S 14:44:24 30° ESE 14:48:29 10° NE daylight
19 Jun - 16:21:43 10° WSW 16:26:10 34° NW 16:30:20 10° NNE daylight
19 Jun - 23:19:08 10° N 23:22:35 23° NE 23:26:02 10° ESE daylight
20 Jun - 01:00:35 10° NW 01:04:28 36° WSW 01:08:26 10° S visible
20 Jun - 13:49:50 10° SE 13:52:20 14° ESE 13:54:44 10° ENE daylight
20 Jun - 15:28:45 10° SW 15:33:42 71° WNW 15:38:18 10° NNE daylight
20 Jun - 17:14:38 10° WNW 17:16:17 12° NW 17:17:55 10° NNW daylight
20 Jun - 22:28:00 10° NNE 22:29:48 12° NE 22:31:36 10° ENE daylight
21 Jun - 00:08:00 10° NNW 00:12:15 89° WSW 00:16:34 10° SSE daylight
21 Jun - 14:36:32 10° SSW 14:41:23 53° ESE 14:45:52 10° NE daylight
21 Jun - 16:19:47 10° W 16:23:27 21° NW 16:26:58 10° N daylight
21 Jun - 23:15:50 10° NNW 23:19:50 39° NE 23:23:51 10° ESE daylight
22 Jun - 00:58:15 10° WNW 01:01:22 20° WSW 01:04:32 10° SSW visible
22 Jun - 13:45:15 10° SSE 13:49:12 24° ESE 13:52:57 10° ENE daylight
22 Jun - 15:26:13 10° SW 15:30:51 41° NW 15:35:11 10° NNE daylight
22 Jun - 22:24:06 10° N 22:27:12 19° NE 22:30:19 10° E daylight
